ROSSMERE Weather Reports


time (UTC)temp
C
wind
direction
speed
KPH
gust
KPH
rain 1hr
cm
rain 24hr
cm
rain mn
cm
humidity
%
barometer
mb
20260510094613 0 16 0.0 3.2 0.00 0.00 0.00 84 1014.3
20260510093119 0 23 0.0 6.4 0.00 0.00 0.00 83 1014.1
20260510091600 0 327 0.0 3.2 0.00 0.00 0.00 84 1014.1
20260510090056 0 316 0.0 3.2 0.00 0.00 0.00 84 1013.9
20260510084559 0 224 0.0 1.6 0.00 0.00 0.00 84 1013.6
20260510083054 0 302 0.0 4.8 0.00 0.00 0.00 84 1013.5
20260510081550 0 315 0.0 0.0 0.00 0.00 0.00 84 1013.3
20260510080050 0 315 0.0 3.2 0.00 0.00 0.00 84 1013.2
20260510074549 0 303 0.0 4.8 0.00 0.00 0.00 85 1013.2
20260510073049 0 303 0.0 0.0 0.00 0.00 0.00 85 1013.2
20260510071552 0 303 0.0 0.0 0.00 0.00 0.00 85 1013.0
20260510070044 -1 303 0.0 0.0 0.00 0.00 0.00 83 1013.0
20260510064541 0 303 0.0 0.0 0.00 0.00 0.00 81 1012.9
20260510063038 0 303 0.0 0.0 0.00 0.00 0.00 79 1012.9
20260510061540 0 303 0.0 0.0 0.00 0.00 0.00 80 1012.8
20260510060036 0 302 0.0 1.6 0.00 0.00 0.00 79 1012.7
20260510054535 0 302 0.0 4.8 0.00 0.00 0.00 81 1012.7
20260510053051 0 297 0.0 0.0 0.00 0.00 0.00 81 1012.6
20260510051530 0 297 0.0 0.0 0.00 0.00 0.00 80 1012.5
20260510050034 0 308 0.0 0.0 0.00 0.00 0.00 80 1012.3
20260510044526 0 307 0.0 0.0 0.00 0.00 0.00 79 1012.2
20260510043038 1 307 0.0 0.0 0.00 0.00 0.00 78 1012.0
20260510041526 1 307 0.0 0.0 0.00 0.00 0.00 77 1011.9
20260510040033 1 29 0.0 1.6 0.00 0.00 0.00 76 1011.9
20260510034517 1 37 0.0 1.6 0.00 0.00 0.00 74 1011.8
20260510033016 2 68 0.0 1.6 0.00 0.00 0.00 73 1011.7
20260510031520 2 72 0.0 4.8 0.00 0.00 0.00 71 1011.4
20260510030013 2 292 0.0 3.2 0.00 0.00 0.00 71 1011.2
20260510024511 2 345 0.0 3.2 0.00 0.00 0.00 69 1011.1
20260510023009 2 279 0.0 6.4 0.00 0.00 0.00 68 1010.9
20260510021521 3 332 0.0 8.0 0.00 0.00 0.00 67 1010.7
20260510020007 3 304 0.0 8.0 0.00 0.00 0.00 67 1010.5
20260510014506 3 281 0.0 8.0 0.00 0.00 0.00 66 1010.4
20260510013004 3 316 0.0 8.0 0.00 0.00 0.00 66 1010.2
20260510011502 3 323 0.0 8.0 0.00 0.00 0.00 64 1010.0
20260510010106 3 294 1.6 8.0 0.00 0.00 0.00 63 1009.8
20260510004601 4 313 1.6 14.5 0.00 0.00 0.00 61 1009.6
20260510003059 4 286 4.8 12.9 0.00 0.00 0.00 60 1009.6
20260510001557 5 333 3.2 16.1 0.00 0.00 0.00 60 1009.4
20260510000101 5 283 6.4 12.9 0.00 0.00 0.00 60 1009.4
20260509234555 5 300 4.8 22.5 0.00 0.00 0.00 60 1009.2
20260509233056 5 276 3.2 19.3 0.00 0.00 0.00 61 1008.9
20260509231553 5 5 6.4 19.3 0.00 0.00 0.00 61 1008.9
20260509230055 6 30 6.4 16.1 0.00 0.00 0.00 57 1008.5
20260509224549 6 297 3.2 16.1 0.00 0.00 0.00 56 1008.3
20260509223048 6 270 6.4 17.7 0.00 0.00 0.00 55 1008.1
20260509221546 6 218 4.8 24.1 0.00 0.00 0.00 55 1008.1
20260509220045 6 241 6.4 20.9 0.00 0.00 0.00 56 1007.9
20260509214558 6 303 4.8 12.9 0.00 0.00 0.00 64 1007.8
20260509213043 5 288 4.8 25.7 0.00 0.00 0.00 66 1007.6
20260509211540 6 313 4.8 17.7 0.00 0.00 0.00 61 1007.2
20260509210043 5 192 8.0 14.5 0.00 0.00 0.00 66 1007.3
20260509204542 4 301 1.6 11.3 0.00 0.00 0.00 70 1007.1
20260509203037 5 283 4.8 14.5 0.00 0.00 0.00 69 1006.9
20260509201536 4 262 4.8 14.5 0.00 0.00 0.00 73 1006.8
20260509200038 3 276 3.2 9.7 0.00 0.00 0.00 76 1006.8
20260509194534 6 295 6.4 19.3 0.00 0.00 0.00 58 1006.6
20260509193032 6 304 3.2 29.0 0.00 0.00 0.00 56 1006.0
20260509191542 6 287 8.0 19.3 0.00 0.00 0.00 60 1006.2
20260509190030 6 254 6.4 11.3 0.00 0.00 0.00 57 1005.8
20260509184535 6 261 4.8 17.7 0.00 0.00 0.00 57 1005.5
20260509183031 6 309 4.8 16.1 0.00 0.00 0.00 56 1005.4
20260509181523 6 205 6.4 16.1 0.00 0.00 0.00 58 1005.4
20260509180022 6 339 4.8 16.1 0.00 0.00 0.00 58 1005.3
20260509174523 6 360 1.6 14.5 0.00 0.00 0.00 57 1005.0
20260509173016 5 304 8.0 22.5 0.00 0.00 0.00 58 1004.9
20260509171514 5 15 8.0 20.9 0.00 0.00 0.00 58 1004.5
20260509170014 5 298 4.8 14.5 0.00 0.00 0.00 59 1004.5
20260509164510 5 339 0.0 19.3 0.00 0.00 0.00 63 1004.4
20260509163011 5 286 3.2 9.7 0.00 0.00 0.00 65 1004.2
20260509161505 4 73 3.2 11.3 0.00 0.00 0.00 69 1004.1
20260509160004 4 322 4.8 14.5 0.00 0.00 0.00 69 1003.9
20260509154502 3 348 3.2 14.5 0.00 0.00 0.00 75 1003.9
20260509153001 3 263 3.2 14.5 0.00 0.00 0.00 75 1003.6
20260509151600 3 301 4.8 11.3 0.00 0.00 0.00 78 1003.5
20260509150058 3 63 3.2 19.3 0.00 0.00 0.00 77 1003.3
20260509144556 3 11 6.4 20.9 0.00 0.00 0.00 70 1003.1
20260509143054 4 17 1.6 11.3 0.00 0.00 0.00 69 1002.7
20260509141552 3 282 4.8 12.9 0.00 0.00 0.00 68 1002.5
20260509140049 3 328 4.8 12.9 0.00 0.00 0.00 67 1002.2
20260509134544 3 355 1.6 16.1 0.00 0.00 0.00 68 1002.0
20260509133043 2 5 0.0 16.1 0.00 0.00 0.00 67 1001.7
20260509131540 2 237 1.6 8.0 0.00 0.00 0.00 68 1001.5
20260509130041 2 5 0.0 8.0 0.00 0.00 0.00 66 1001.0
20260509124541 2 10 1.6 9.7 0.00 0.00 0.00 67 1000.8
20260509123034 2 26 1.6 8.0 0.00 0.00 0.00 69 1000.6
20260509121533 2 331 0.0 6.4 0.00 0.00 0.00 70 1000.4
20260509120027 1 265 0.0 4.8 0.00 0.00 0.00 72 1000.4
20260509114524 1 315 0.0 4.8 0.00 0.00 0.00 75 1000.2
20260509113026 1 38 0.0 3.2 0.00 0.00 0.00 75 999.9
20260509111523 0 9 0.0 0.0 0.00 0.00 0.00 76 999.8
20260509110022 0 338 0.0 1.6 0.00 0.00 0.00 77 999.9
20260509104520 0 297 0.0 6.4 0.00 0.00 0.00 78 999.9
20260509103021 0 309 0.0 4.8 0.00 0.00 0.00 83 999.9
20260509101524 0 157 0.0 1.6 0.00 0.00 0.00 87 999.9
20260509100024 -1 157 0.0 3.2 0.00 0.00 0.00 90 999.7